Wind_Speed
8 8 8 7 8 8 8 8 8 9 8 8 9 9 9 10 10 10 11 11 12 12 13 14 14 15 17 18 19 20 22 23 24 25 26 27 28 28 29 29 29 29 29 29
9 9 9 8 8 8 9 9 9 10 9 9 9 9 10 10 11 11 12 12 12 13 15 16 16 17 19 20 21 23 24 25 26 27 28 29 30 31 31 31 31 31 31 31
8 9 9 8 8 9 9 10 10 10 10 9 10 10 11 11 12 12 13 13 14 15 16 17 18 19 20 22 23 24 25 27 27 28 30 31 32 33 33 33 34 34 34 34
10 10 10 8 9 10 10 10 11 11 11 11 12 13 13 13 14 14 14 14 15 16 18 19 20 21 22 24 26 27 28 29 31 32 33 34 35 35 35 36 36 36 37 36
12 12 11 10 10 11 12 12 12 13 13 13 14 14 15 15 16 16 16 17 18 19 20 21 23 24 25 26 28 29 31 32 34 35 36 36 37 38 38 38 38 39 39 39
14 14 15 12 12 13 14 14 14 15 16 16 17 17 17 18 18 19 19 20 21 22 23 24 25 27 28 29 31 32 33 35 36 37 38 38 39 40 41 41 41 41 41 40
17 17 18 15 14 16 16 15 16 17 18 19 19 20 20 20 21 22 23 23 24 25 26 27 28 30 31 33 34 35 37 38 39 40 41 41 42 42 43 43 42 42 41 41
20 21 20 18 18 19 19 19 19 20 21 21 22 22 23 23 24 25 26 27 28 28 29 30 32 33 34 35 36 38 39 41 42 42 43 43 44 44 44 44 43 43 43 42
23 23 22 21 21 21 22 22 22 23 23 24 25 25 26 26 27 28 28 29 30 31 32 34 35 36 37 38 39 40 42 43 43 44 44 44 45 45 45 45 45 44 43 43
27 26 25 25 25 25 25 25 25 26 27 27 28 28 29 29 30 30 31 32 33 34 35 37 38 39 40 41 42 43 44 44 45 45 45 45 46 46 46 46 46 45 45 44
30 29 29 28 28 28 28 28 29 29 30 30 31 31 32 32 33 33 34 35 36 37 38 39 40 41 42 44 45 45 46 45 46 46 47 47 47 47 47 47 47 47 46 46
33 33 33 32 31 31 32 32 32 32 32 33 34 34 35 35 35 36 37 38 39 40 41 41 42 43 44 45 47 47 47 47 48 48 48 49 49 48 48 49 49 49 48 48
35 35 35 35 34 34 35 35 35 35 35 36 36 36 37 38 38 38 39 40 41 41 42 44 45 46 47 48 49 49 49 49 49 49 49 50 50 51 51 50 50 50 49 48
37 37 37 37 36 36 36 36 37 37 38 38 38 38 39 39 40 41 41 42 43 44 45 46 47 48 48 49 49 50 50 50 50 50 51 52 53 53 53 52 51 49 48 48
38 39 39 39 39 38 38 39 39 39 40 40 40 40 41 41 42 43 43 44 45 46 47 48 49 49 50 51 51 51 51 51 52 52 53 54 55 54 54 53 52 50 48 47
39 39 39 39 39 39 39 39 40 40 41 41 41 42 42 43 43 44 45 46 47 48 49 50 51 51 52 52 53 53 53 54 54 55 55 55 55 55 54 53 52 51 49 48
40 39 40 40 40 40 40 40 40 40 41 42 42 42 43 44 44 45 47 48 49 50 51 52 53 53 54 54 54 55 55 56 57 57 56 56 56 56 55 54 52 51 49 48
39 40 40 40 40 40 41 41 41 42 42 42 43 44 45 46 46 48 49 50 51 52 53 54 54 55 55 56 57 57 58 58 58 58 57 57 57 56 55 53 52 51 49 48
40 41 41 41 41 41 42 42 42 43 44 44 45 46 47 48 49 50 51 52 53 54 55 55 56 57 57 58 58 59 59 59 59 58 58 57 57 56 54 53 51 50 49 49
42 42 42 42 42 43 44 44 45 45 46 47 47 48 49 50 52 53 53 55 56 56 57 57 58 58 59 59 60 60 60 60 59 58 57 57 56 54 53 52 51 50 49 49
42 43 43 43 44 45 45 46 47 47 48 49 49 50 51 52 54 55 56 56 57 58 58 59 59 59 60 60 61 61 61 60 59 57 56 55 54 53 53 52 51 49 48 47
43 44 44 44 45 46 47 48 48 49 50 51 52 52 53 54 55 57 58 59 59 60 60 60 60 60 61 61 61 61 60 58 57 56 55 54 53 52 51 50 48 47 45 44
45 45 46 46 47 48 48 49 50 51 51 52 53 55 56 57 58 59 60 60 61 62 61 61 61 61 61 60 60 59 58 56 56 55 54 52 51 50 49 47 45 44 43 42
48 48 49 49 49 50 50 51 52 53 54 55 56 57 58 59 60 61 62 62 63 63 62 61 60 60 59 58 57 56 55 54 53 52 51 50 49 48 47 45 43 42 41 39
51 52 52 53 53 54 54 55 56 57 57 58 59 60 61 62 63 63 63 63 63 62 61 59 58 57 56 55 54 54 53 52 52 51 50 49 48 46 45 44 42 40 38 36
55 55 56 56 57 57 58 58 59 59 60 61 61 62 63 63 64 63 63 62 60 59 57 55 54 53 53 52 52 52 51 51 50 48 47 46 45 44 42 41 39 37 35 34
58 59 59 59 59 60 60 61 61 62 62 62 62 62 62 62 62 61 59 58 56 55 53 52 51 51 51 51 50 50 49 48 46 45 44 43 42 41 39 38 36 35 33 32
Wind_Direction
221 233 236 227 221 220 225 237 250 265 274 280 287 289 291 292 293 294 295 298 295 294 294 299 301 304 306 307 308 309 310 310 311 311 311 311 311 311 312 312 311 310 309 309
228 236 240 240 240 239 239 247 260 271 281 287 289 291 291 294 298 298 297 299 298 296 297 298 302 302 303 305 307 307 308 308 308 309 309 308 308 308 308 308 308 307 306 305
238 243 243 244 244 247 250 255 263 273 281 285 291 293 292 296 298 299 300 299 299 298 298 298 301 302 302 304 306 307 307 308 309 309 309 308 307 306 305 305 305 304 302 301
241 248 251 248 249 254 259 263 268 275 281 287 291 294 296 298 298 299 300 300 301 300 299 299 301 304 303 304 305 306 306 307 307 308 308 308 308 307 305 304 302 301 300 299
244 249 256 254 256 259 263 266 271 276 282 286 289 291 294 296 297 298 298 300 301 301 301 301 303 305 305 304 305 305 306 307 308 307 307 307 307 307 306 304 301 299 298 297
249 252 256 259 260 265 269 270 271 276 281 285 289 291 294 295 296 297 298 300 300 301 301 302 302 304 304 305 305 305 306 307 308 308 307 307 307 306 305 304 302 299 298 296
253 256 259 263 266 268 271 274 275 276 280 284 288 291 294 294 295 297 298 299 300 300 301 301 302 303 303 304 305 305 305 307 307 307 307 306 306 305 304 303 302 300 299 297
256 259 263 267 268 270 273 275 277 279 282 285 288 291 293 294 295 297 298 299 300 300 300 301 301 303 303 304 305 305 306 306 307 307 306 306 306 305 304 303 302 301 299 296
260 263 267 268 269 271 273 275 278 281 284 286 288 291 292 294 296 296 297 297 298 299 300 300 302 303 303 304 305 307 307 306 307 306 306 306 305 305 305 304 303 301 299 296
263 264 266 268 268 270 273 276 279 282 284 286 288 290 292 294 295 296 296 297 299 300 300 301 301 303 303 304 306 306 306 306 306 306 306 306 306 306 305 304 303 301 298 295
262 264 265 266 268 271 273 276 279 281 284 286 288 290 292 293 295 296 297 298 299 300 301 301 301 302 303 303 305 306 306 305 306 306 306 306 306 306 305 304 303 301 298 295
262 264 265 266 268 271 273 276 278 280 282 284 286 289 291 292 294 295 297 298 300 301 301 301 301 302 303 303 304 305 305 305 305 306 305 306 306 306 305 304 302 300 297 295
263 265 266 268 269 270 273 276 277 279 281 283 285 288 290 292 293 295 297 299 300 301 302 303 303 303 303 304 304 305 305 305 305 305 305 305 306 306 305 303 302 300 298 295
263 265 267 268 270 271 273 274 276 279 281 282 285 287 289 291 292 294 296 298 299 301 302 303 304 304 304 304 304 304 304 304 304 305 305 306 306 305 305 304 303 301 299 296
264 265 267 268 270 272 273 275 277 279 281 282 284 286 289 290 292 294 296 297 299 300 302 303 305 305 304 304 304 304 304 304 304 304 305 306 306 305 304 303 303 302 299 296
264 266 268 270 271 273 274 275 277 279 281 283 285 286 288 290 292 294 295 297 298 300 301 303 304 305 305 304 305 304 304 304 304 305 305 305 305 304 304 303 302 301 300 297
265 267 268 269 271 273 275 276 278 279 281 283 284 286 289 290 292 294 296 297 298 299 301 302 303 304 305 305 305 305 305 305 305 305 304 304 304 303 303 302 301 300 299 297
266 268 269 270 271 272 274 276 278 279 281 282 284 287 289 290 292 294 296 297 298 299 300 301 302 303 304 305 305 305 305 305 305 305 304 303 303 303 302 301 300 298 297 296
267 268 270 271 272 273 275 276 278 279 281 283 285 287 289 290 292 294 296 297 298 299 300 300 301 302 303 304 304 305 305 305 305 305 304 303 302 302 301 300 299 297 296 295
269 270 270 271 272 274 275 277 278 280 281 283 285 287 288 290 292 294 295 297 298 299 300 300 301 302 303 303 304 304 304 305 305 305 304 303 303 302 301 300 298 296 295 295
269 270 271 273 274 275 276 277 279 280 282 283 285 287 289 291 292 294 295 297 298 299 300 300 300 301 302 303 303 304 304 304 304 305 305 304 304 303 302 300 298 296 295 295
270 271 272 273 274 275 277 278 279 281 282 284 285 287 289 291 293 294 296 297 298 299 300 300 300 300 301 302 303 303 303 303 304 304 304 305 305 304 303 301 299 297 295 295
270 271 273 274 276 277 278 279 281 282 284 285 287 289 290 292 293 295 296 297 298 299 300 299 299 299 300 301 302 303 303 303 303 304 304 304 305 304 304 302 300 298 296 296
271 272 274 275 277 278 279 281 282 283 285 287 288 290 291 293 294 295 296 297 298 299 299 299 298 299 299 300 301 302 302 303 303 304 303 303 303 303 303 302 300 299 298 296
272 273 275 277 278 279 281 282 283 285 286 288 289 290 291 292 293 294 296 297 298 298 298 298 298 298 299 300 301 302 302 303 303 303 303 302 303 303 302 301 300 298 297 295
273 275 276 278 279 280 281 282 283 284 286 287 288 289 290 291 292 294 295 296 296 296 297 297 297 298 299 300 301 302 302 302 303 302 302 302 303 302 302 302 301 299 296 294
274 275 276 277 278 279 280 281 282 283 285 286 287 288 290 291 292 293 294 294 295 295 295 296 297 298 298 299 301 302 303 303 303 303 303 303 303 302 302 302 301 299 297 295
Height
5837 5838 5839 5839 5840 5841 5841 5841 5841 5840 5840 5840 5839 5838 5837 5837 5836 5835 5834 5833 5833 5832 5831 5831 5830 5829 5828 5827 5825 5824 5822 5820 5818 5816 5814 5811 5808 5806 5803 5800 5798 5795 5793 5791
5836 5837 5837 5838 5839 5839 5839 5839 5839 5839 5839 5838 5836 5835 5835 5834 5833 5832 5831 5830 5829 5828 5827 5827 5826 5825 5823 5822 5821 5819 5817 5815 5812 5810 5807 5805 5802 5799 5796 5793 5790 5788 5785 5783
5835 5835 5836 5837 5837 5837 5837 5837 5837 5837 5837 5835 5834 5833 5832 5831 5830 5829 5828 5826 5825 5824 5823 5822 5821 5820 5818 5817 5815 5813 5810 5808 5805 5803 5800 5797 5794 5791 5788 5785 5782 5779 5776 5774
5832 5834 5834 5836 5835 5835 5835 5835 5835 5834 5834 5833 5832 5830 5829 5828 5826 5825 5824 5823 5821 5820 5819 5818 5816 5814 5812 5810 5808 5806 5803 5800 5798 5795 5791 5788 5785 5781 5778 5775 5772 5769 5766 5763
5830 5830 5831 5832 5832 5832 5832 5833 5832 5831 5831 5830 5828 5827 5826 5824 5823 5821 5820 5818 5817 5815 5814 5812 5810 5808 5806 5804 5801 5798 5796 5793 5789 5786 5782 5778 5774 5771 5767 5763 5760 5757 5754 5751
5827 5827 5828 5830 5829 5829 5830 5829 5829 5828 5827 5826 5825 5824 5823 5821 5819 5817 5815 5814 5812 5810 5808 5806 5804 5801 5799 5796 5793 5790 5787 5783 5780 5776 5772 5767 5763 5759 5755 5751 5747 5744 5741 5738
5823 5823 5823 5825 5825 5825 5826 5826 5825 5824 5823 5822 5820 5819 5818 5816 5814 5812 5810 5808 5806 5804 5802 5799 5797 5794 5791 5788 5785 5781 5778 5774 5769 5765 5760 5756 5751 5747 5742 5738 5734 5730 5727 5724
5818 5819 5821 5821 5820 5821 5821 5820 5819 5819 5818 5816 5815 5814 5812 5810 5808 5806 5804 5801 5799 5797 5794 5791 5788 5785 5782 5779 5775 5771 5767 5763 5758 5753 5748 5743 5738 5733 5729 5724 5720 5716 5713 5710
5814 5816 5816 5815 5815 5815 5815 5814 5814 5813 5812 5811 5809 5807 5805 5803 5801 5799 5797 5794 5791 5789 5786 5783 5779 5776 5773 5769 5765 5760 5756 5751 5746 5740 5735 5730 5725 5720 5715 5710 5706 5702 5698 5696
5807 5808 5808 5808 5809 5808 5808 5807 5807 5806 5805 5804 5802 5800 5798 5796 5794 5791 5789 5786 5783 5780 5777 5773 5770 5766 5762 5757 5753 5748 5743 5738 5733 5728 5722 5717 5712 5707 5702 5697 5692 5688 5684 5681
5799 5800 5800 5801 5801 5801 5801 5800 5799 5798 5797 5796 5794 5792 5790 5788 5785 5783 5780 5777 5774 5770 5767 5763 5759 5755 5750 5746 5741 5736 5731 5725 5720 5714 5709 5704 5699 5694 5689 5684 5678 5673 5669 5665
5791 5791 5792 5793 5793 5793 5792 5792 5791 5790 5789 5787 5785 5783 5781 5779 5776 5774 5770 5767 5764 5760 5756 5752 5748 5743 5738 5733 5728 5723 5718 5712 5707 5701 5696 5691 5686 5681 5676 5670 5664 5658 5653 5649
5781 5782 5782 5783 5784 5784 5783 5783 5782 5781 5779 5778 5776 5774 5772 5769 5766 5764 5760 5757 5753 5749 5745 5741 5736 5731 5726 5721 5715 5710 5704 5699 5694 5688 5683 5677 5672 5666 5662 5657 5651 5645 5639 5634
5771 5772 5772 5773 5774 5774 5773 5772 5772 5771 5769 5768 5766 5764 5762 5759 5756 5753 5750 5746 5742 5738 5733 5729 5724 5719 5713 5708 5702 5697 5691 5685 5680 5674 5669 5663 5657 5652 5646 5640 5636 5630 5625 5619
5761 5761 5762 5762 5763 5763 5762 5761 5761 5760 5758 5757 5755 5753 5751 5748 5745 5742 5738 5735 5731 5726 5721 5716 5711 5706 5700 5695 5689 5683 5678 5672 5666 5661 5655 5649 5642 5636 5630 5624 5619 5614 5609 5605
5750 5751 5751 5751 5751 5751 5751 5750 5749 5748 5747 5745 5743 5741 5739 5736 5733 5730 5726 5722 5718 5714 5709 5704 5698 5693 5687 5681 5675 5670 5664 5658 5652 5646 5639 5633 5627 5621 5615 5609 5604 5598 5593 5589
5739 5739 5740 5740 5740 5740 5739 5738 5737 5736 5735 5733 5732 5729 5727 5724 5721 5718 5714 5710 5705 5700 5695 5690 5685 5679 5673 5667 5661 5655 5649 5643 5637 5630 5624 5617 5611 5605 5599 5593 5588 5583 5579 5574
5727 5728 5728 5728 5728 5728 5727 5726 5726 5724 5723 5721 5719 5717 5715 5712 5708 5705 5701 5696 5692 5687 5681 5676 5670 5664 5658 5652 5646 5640 5634 5627 5621 5614 5608 5602 5595 5589 5583 5578 5572 5568 5564 5559
5715 5715 5716 5716 5716 5715 5715 5714 5713 5712 5710 5708 5706 5704 5701 5698 5695 5691 5687 5682 5677 5673 5667 5661 5655 5650 5644 5637 5631 5625 5618 5612 5605 5598 5592 5586 5580 5574 5568 5562 5557 5552 5547 5543
5703 5703 5703 5703 5703 5703 5702 5701 5700 5698 5697 5695 5693 5690 5687 5684 5680 5676 5672 5667 5662 5657 5651 5646 5640 5634 5628 5622 5616 5609 5602 5596 5589 5582 5576 5570 5564 5558 5552 5547 5541 5536 5532 5528
5690 5690 5690 5690 5690 5689 5688 5687 5686 5685 5683 5680 5678 5675 5672 5669 5665 5660 5656 5652 5647 5641 5636 5630 5624 5618 5612 5606 5599 5593 5586 5579 5573 5567 5560 5554 5548 5542 5537 5531 5526 5521 5516 5512
5677 5677 5677 5676 5676 5675 5674 5673 5671 5670 5668 5665 5663 5660 5657 5653 5649 5645 5640 5635 5630 5625 5619 5614 5608 5602 5596 5589 5583 5576 5570 5563 5557 5551 5545 5539 5533 5527 5521 5516 5510 5506 5502 5498
5663 5663 5662 5662 5661 5660 5659 5658 5656 5654 5652 5650 5647 5644 5640 5637 5632 5628 5624 5619 5613 5608 5602 5596 5591 5585 5578 5572 5566 5560 5554 5548 5542 5536 5530 5525 5519 5513 5507 5502 5497 5492 5488 5485
5648 5648 5647 5647 5646 5645 5643 5642 5640 5638 5636 5633 5630 5626 5623 5619 5615 5610 5605 5600 5595 5590 5585 5579 5574 5568 5562 5556 5550 5544 5539 5533 5527 5522 5516 5511 5505 5500 5494 5489 5485 5480 5476 5472
5631 5631 5631 5630 5629 5628 5627 5625 5623 5620 5618 5615 5612 5609 5605 5601 5597 5593 5588 5583 5578 5572 5567 5562 5557 5551 5546 5540 5535 5529 5524 5518 5513 5508 5503 5497 5492 5487 5482 5477 5472 5468 5464 5461
5614 5614 5613 5613 5612 5610 5609 5607 5605 5602 5600 5597 5594 5591 5587 5583 5578 5574 5570 5565 5560 5555 5550 5545 5541 5536 5530 5525 5520 5515 5510 5504 5499 5494 5489 5484 5480 5474 5470 5465 5461 5457 5453 5450
5596 5595 5595 5594 5593 5591 5590 5588 5586 5584 5581 5578 5576 5572 5568 5564 5560 5556 5552 5547 5543 5539 5534 5530 5525 5521 5516 5511 5506 5501 5496 5491 5486 5481 5477 5472 5467 5463 5458 5454 5450 5446 5443 5440